Regional Weather Roundup
Issued by NWS

Home | Current Version | Previous Version | Graphics & Text | Print | Product List | Glossary Off
Versions: 1 2 3 4 5 6 7 8 9 10 11 12 13 14 15 16 17 18 19 20 21 22 23 24 25 26 27 28 29 30 31 32 33 34 35 36 37 38 39 40 41 42 43 44 45 46 47 48 49 50

000
ASUS43 KMKX 290611
RWRWI

WISCONSIN REGIONAL WEATHER ROUNDUP
NATIONAL WEATHER SERVICE MILWAUKEE/SULLIVAN WI
1200 AM CST MON DEC 29 2014

NOTE: "FAIR" INDICATES FEW OR NO CLOUDS BELOW 12,000 FEET WITH NO
SIGNIFICANT WEATHER AND/OR OBSTRUCTIONS TO VISIBILITY.

WIZ001-002-006>008-014>016-023>028-290700-
NORTHWEST WISCONSIN

CITY           SKY/WX    TMP DP  RH WIND       PRES   REMARKS
SUPERIOR ARPT  CLEAR      4  -4  69 N5        30.41R WCI  -5
6HR MIN TEMP:   4; 6HR MAX TEMP:   9;

ASHLAND        CLEAR     -1  -6  79 W5        30.35S WCI -11
6HR MIN TEMP:  -2; 6HR MAX TEMP:   5;

HAYWARD        CLEAR     -8 -13  78 CALM      30.33R
6HR MIN TEMP:  -9; 6HR MAX TEMP:   4;

SIREN          PTCLDY    -2  -5  87 CALM      30.39R
6HR MIN TEMP:  -4; 6HR MAX TEMP:   6;

CUMBERLAND     CLEAR      0  -6  78 NW6       30.34R WCI -12
RICE LAKE      CLEAR      1  -5  77 NW6       30.36R WCI -11
6HR MIN TEMP:  -1; 6HR MAX TEMP:  12;

CHETEK         CLEAR     -1  -4  86 CALM      30.35R
6HR MIN TEMP:  -3; 6HR MAX TEMP:   9;

LADYSMITH      PTCLDY    -6 -10  84 CALM      30.33R
6HR MIN TEMP:  -9; 6HR MAX TEMP:  13;

EAU CLAIRE     MOCLDY     3  -2  79 CALM      30.35R
6HR MIN TEMP:  -1; 6HR MAX TEMP:  12;

MENOMONIE      PTCLDY     4   0  83 NW5       30.36R WCI  -5
6HR MIN TEMP:   4; 6HR MAX TEMP:  15;

NEW RICHMOND   MOCLDY     3  -4  71 N5        30.36S WCI  -6
6HR MIN TEMP:  -1; 6HR MAX TEMP:   9;

OSCEOLA        MOCLDY     0  -3  88 CALM      30.41R
6HR MIN TEMP:  -5; 6HR MAX TEMP:  16;

$$

WIZ003>005-009-010-017-018-290700-
NORTH CENTRAL WISCONSIN

CITY           SKY/WX    TMP DP  RH WIND       PRES   REMARKS
MANITOWISH WTR PTCLDY   -13 -18  79 CALM      30.24R
6HR MIN TEMP: -15; 6HR MAX TEMP:   1;

ARBOR VITAE    PTCLDY    -6 -11  79 CALM      30.24S
6HR MIN TEMP:  -7; 6HR MAX TEMP:   9;

WOODRUFF       PTCLDY    -6 -11  79 CALM      30.24S
6HR MIN TEMP:  -7; 6HR MAX TEMP:   9;

RHINELANDER    PTCLDY    -6  -9  86 CALM      30.24S
6HR MIN TEMP: -10; 6HR MAX TEMP:   9;

EAGLE RIVER    PTCLDY    -5 -10  79 CALM      30.23R
6HR MIN TEMP:  -6; 6HR MAX TEMP:   7;

LAND O LAKES   LGT SNOW   2  -1  85 SW5       30.23R WCI  -8
6HR MIN TEMP:  -5; 6HR MAX TEMP:   9;

PHILLIPS       PTCLDY   -12 -15  84 CALM      30.27R
6HR MIN TEMP: -13; 6HR MAX TEMP:   9;

TOMAHAWK       MOCLDY   -11 -15  80 CALM      30.27S
6HR MIN TEMP: -11; 6HR MAX TEMP:   9;

MEDFORD        PTCLDY   N/A N/A N/A CALM      30.27R
MERRILL        MOCLDY    -5  -8  86 CALM      30.28S
6HR MIN TEMP:  -6; 6HR MAX TEMP:  15;

$$

WIZ029-030-035-036-043>047-290700-
CENTRAL WISCONSIN

CITY           SKY/WX    TMP DP  RH WIND       PRES   REMARKS
WAUSAU         PTCLDY     4   1  88 NW5       30.28R WCI  -5
6HR MIN TEMP:   4; 6HR MAX TEMP:  15;

MOSINEE        PTCLDY     5   5 100 W3        30.29R
MARSHFIELD     PTCLDY     8   4  83 NE7       30.29R WCI  -3
6HR MIN TEMP:   3; 6HR MAX TEMP:  15;

STEVENS POINT  PTCLDY     8   5  86 N5        30.31R WCI   0
6HR MIN TEMP:   8; 6HR MAX TEMP:  18;

WAUPACA        PTCLDY    17  11  80 NW3       30.31R
6HR MIN TEMP:  17; 6HR MAX TEMP:  26;

WAUTOMA        CLEAR     16  12  84 N3        30.32R
6HR MIN TEMP:  16; 6HR MAX TEMP:  26;

WISC RAPIDS    PTCLDY    12   6  77 N6        30.32R WCI   3
6HR MIN TEMP:  12; 6HR MAX TEMP:  20;

CAMP DOUGLAS   PTCLDY    15  15  99 N5        30.31R WCI   8
6HR MIN TEMP:  14; 6HR MAX TEMP:  24;

$$

WIZ011>013-019>022-031-037>040-048>050-290700-
NORTHEAST WISCONSIN

CITY           SKY/WX    TMP DP  RH WIND       PRES   REMARKS
ANTIGO         PTCLDY    -4  -7  87 NW5       30.25R WCI -14
6HR MIN TEMP:  -7; 6HR MAX TEMP:  16;

SHAWANO        PTCLDY    14   9  79 CALM      30.31R
6HR MIN TEMP:  14; 6HR MAX TEMP:  24;

OCONTO         CLEAR     13   7  76 NW3       30.31S
6HR MIN TEMP:  13; 6HR MAX TEMP:  23;

STURGEON BAY   CLEAR     16   3  57 N12       30.30S WCI   3
6HR MIN TEMP:  16; 6HR MAX TEMP:  25;

GREEN BAY      CLEAR     16   7  67 N9        30.31R WCI   4
6HR MIN TEMP:  16; 6HR MAX TEMP:  25;

MANITOWOC      PTCLDY    20  14  77 N10       30.30R WCI   9
6HR MIN TEMP:  20; 6HR MAX TEMP:  27; 6HR PCP: TRACE;

APPLETON       CLEAR     18  10  73 N9        30.29R WCI   6
CLINTONVILLE   PTCLDY    14   7  73 N3        30.31R
OSHKOSH        PTCLDY    19  13  77 N6        30.29R WCI  11
6HR MIN TEMP:  19; 6HR MAX TEMP:  28;

$$

WIZ032>034-041-042-053>061-290700-
SOUTHWEST WISCONSIN

CITY           SKY/WX    TMP DP  RH WIND       PRES   REMARKS
LA CROSSE      MOCLDY    18  14  84 N7        30.34R WCI   9
6HR MIN TEMP:  15; 6HR MAX TEMP:  24;

SPARTA         MOCLDY    16  13  90 CALM      30.33R
6HR MIN TEMP:  13; 6HR MAX TEMP:  24;

VIROQUA        MOCLDY    19  15  83 NE10      30.26F WCI   8
6HR MIN TEMP:  19; 6HR MAX TEMP:  25;

BOSCOBEL       CLOUDY    24  16  71 NE7       30.30R WCI  16
6HR MIN TEMP:  20; 6HR MAX TEMP:  25;

PRAIRIE DU CHI CLOUDY    25  19  77 N3        30.29S
6HR MIN TEMP:  24; 6HR MAX TEMP:  27;

PLATTEVILLE    CLOUDY    26  22  85 CALM      30.26R
6HR MIN TEMP:  22; 6HR MAX TEMP:  28;

$$

WIZ056-057-062-063-064-067-068-290700-
SOUTH CENTRAL WISCONSIN

CITY           SKY/WX    TMP DP  RH WIND       PRES   REMARKS
REEDSBURG      MOCLDY    19  13  77 N3        30.29S
6HR MIN TEMP:  19; 6HR MAX TEMP:  28;

BARABOO/DELLS  MOCLDY    19  13  76 N5        30.29R WCI  13
6HR MIN TEMP:  19; 6HR MAX TEMP:  28;

LONE ROCK      MOCLDY    26  14  60 N13       30.29R WCI  15
6HR MIN TEMP:  26; 6HR MAX TEMP:  33;

MINERAL POINT  MOCLDY    27  21  80 N9        30.24S WCI  17
MADISON        CLOUDY    24  17  74 N15       30.27R WCI  11
6HR MIN TEMP:  24; 6HR MAX TEMP:  29;

MIDDLETON      PTCLDY    26  19  74 N8        30.27R WCI  17
6HR MIN TEMP:  23; 6HR MAX TEMP:  31;

WATERTOWN      CLOUDY    24  19  82 N10       30.26S WCI  14
6HR MIN TEMP:  19; 6HR MAX TEMP:  27;

MONROE         MOCLDY    25  21  86 N6        30.24S WCI  18
JANESVILLE     CLOUDY    25  21  86 CALM      30.26R
$$

WIZ051-052-058>065-066-070>072-290700-
SOUTHEAST WISCONSIN

CITY           SKY/WX    TMP DP  RH WIND       PRES   REMARKS
MILWAUKEE      CLOUDY    27  19  72 NW6       30.25S WCI  20
6HR MIN TEMP:  24; 6HR MAX TEMP:  29;

WAUKESHA       CLOUDY    23  19  86 CALM      30.26R
MILWAUKEE/TIMM CLOUDY    28  21  74 N10       30.26S WCI  19
RACINE         PTCLDY    23  17  78 NW3       30.27R
6HR MIN TEMP:  23; 6HR MAX TEMP:  29;

BURLINGTON     CLOUDY    21  19  95 CALM      30.25S
6HR MIN TEMP:  18; 6HR MAX TEMP:  22;

KENOSHA        CLOUDY    26  19  74 N3        30.25S
6HR MIN TEMP:  25; 6HR MAX TEMP:  29;

FOND DU LAC    PTCLDY    21  13  71 N8        30.29R WCI  11
6HR MIN TEMP:  21; 6HR MAX TEMP:  28;

SHEBOYGAN      PTCLDY    22  15  75 N9        30.28R WCI  12
6HR MIN TEMP:  21; 6HR MAX TEMP:  28;

WEST BEND      CLOUDY    25  18  74 N6        30.26R WCI  18
JUNEAU         PTCLDY    22  17  82 N8        30.28R WCI  12
6HR MIN TEMP:  22; 6HR MAX TEMP:  27;

$$

LSZ147-162-290700-
LAKE SUPERIOR

STATION/POSITION TIME  TEMP    WIND        PRES    WAVE
                       AIR SEA DIR/SP/G            HT/PER
                 (UTC) (F)     (DEG/KT/KT) (MB)    (FT/S)
DEVILS ISLAND    0600    9     320/ 11/ 14 1029.8R
PORT WING        0500   11     320/ 12/ 14 1028.4R
SAXON HARBOR     0500    7     210/  5/  7 1027.4R
$$

LMZ867-665-643>646-290700-
LAKE MICHIGAN

STATION/POSITION TIME  TEMP    WIND        PRES    WAVE
                       AIR SEA DIR/SP/G            HT/PER


USA.gov is the U.S. government's official web portal to all federal, state and local government web resources and services.